Weather History for Philip, SD

Change the Weather History Date:

Wednesday, November 14, 2012

  Actual Average Record
Temperature  
Mean Temperature 34 °F 35 °F  
Max Temperature 46 °F 48 °F 75 °F (1990)
Min Temperature 22 °F 22 °F -25 °F (1959)
Degree Days  
Heating Degree Days 31 30  
Month to date heating degree days 400 378  
Since 1 July heating degree days 1027 1081  
Cooling Degree Days 0 0  
Month to date cooling degree days 0 0  
Year to date cooling degree days 1202 818  
Moisture  
Dew Point 27 °F    
Average Humidity 75    
Maximum Humidity 96    
Minimum Humidity 53    
Precipitation  
Precipitation 0.00 in 0.02 in 0.38 in (1956)
Month to date precipitation 0.13 0.37  
Year to date precipitation 6.93 16.67  
Sea Level Pressure  
Sea Level Pressure 30.17 in    
Wind  
Wind Speed 3 mph (West)    
Max Wind Speed 10 mph    
Max Gust Speed 12 mph    
Visibility 10 miles    
Events      
T = Trace of Precipitation, MM = Missing Value Source: NWS Daily Summary

Daily Weather History Graph

Daily Weather History Graph

Search for Another Location

Airport:

Trip Planner

Search our weather history database for the weather conditions in past years. The results will help you decide how hot, cold, wet, or windy it might be!

Date:

Astronomy

Nov. 14, 2012 Rise Set
Actual Time 6:40 AM MST 4:20 PM MST
Civil Twilight 6:09 AM MST 4:51 PM MST
Nautical Twilight 5:34 AM MST 5:26 PM MST
Astronomical Twilight 5:00 AM MST 6:00 PM MST
Moon 7:34 AM MST (11/14) 5:08 PM MST (11/14)
Length of Visible Light 10h 41m
Length of Day
9h 39m
New Moon, 1% of the Moon is Illuminated
Nov 14
New Moon
Nov 20
First Quarter
Nov 28
Full
Dec 6
Last Quarter
Dec 13
New

Hourly Weather History & Observations

Time (MST) Temp. Windchill Dew Point Humidity Pressure Visibility Wind Dir Wind Speed Gust Speed Precip Events Conditions
12:55 AM 24.1 °F 16.0 °F 21.9 °F 91% 30.25 in 10.0 mi West 6.9 mph - N/A   Clear
1:55 AM 23.0 °F - 19.9 °F 88% 30.25 in 10.0 mi Calm Calm - N/A   Clear
2:55 AM 26.1 °F - 23.0 °F 88% 30.23 in 10.0 mi Calm Calm - N/A   Clear
3:55 AM 25.0 °F - 21.9 °F 88% 30.22 in 10.0 mi Calm Calm - N/A   Scattered Clouds
4:55 AM 24.1 °F - 21.9 °F 91% 30.22 in 10.0 mi Calm Calm - N/A   Clear
5:55 AM 23.0 °F 18.4 °F 21.0 °F 92% 30.21 in 10.0 mi East 3.5 mph - N/A   Clear
6:55 AM 24.1 °F - 21.0 °F 88% 30.20 in 10.0 mi Calm Calm - N/A   Clear
7:55 AM 26.1 °F - 23.0 °F 88% 30.20 in 10.0 mi Calm Calm - N/A   Clear
8:55 AM 32.0 °F 27.5 °F 27.0 °F 82% 30.19 in 10.0 mi West 4.6 mph - N/A   Clear
10:55 AM 41.0 °F 36.4 °F 30.9 °F 67% 30.14 in 10.0 mi WSW 6.9 mph - N/A   Clear
11:55 AM 45.0 °F 40.6 °F 30.9 °F 58% 30.12 in 10.0 mi West 8.1 mph - N/A   Clear
12:55 PM 45.0 °F 41.2 °F 30.9 °F 58% 30.11 in 10.0 mi WSW 6.9 mph - N/A   Clear
1:55 PM 46.0 °F 41.9 °F 30.9 °F 56% 30.10 in 10.0 mi West 8.1 mph - N/A   Clear
2:55 PM 45.0 °F 41.8 °F 30.9 °F 58% 30.10 in 10.0 mi West 5.8 mph - N/A   Clear
3:55 PM 41.0 °F - 30.9 °F 67% 30.11 in 10.0 mi Calm Calm - N/A   Clear
4:55 PM 37.9 °F - 30.0 °F 73% 30.12 in 10.0 mi Calm Calm - N/A   Clear
5:55 PM 35.1 °F - 28.9 °F 78% 30.14 in 10.0 mi Calm Calm - N/A   Partly Cloudy
6:55 PM 34.0 °F 29.8 °F 28.9 °F 82% 30.15 in 10.0 mi WNW 4.6 mph - N/A   Scattered Clouds
7:55 PM 33.1 °F 28.7 °F 28.9 °F 85% 30.16 in 10.0 mi WNW 4.6 mph - N/A   Scattered Clouds
8:55 PM 33.1 °F 27.7 °F 30.0 °F 89% 30.18 in 10.0 mi West 5.8 mph - N/A   Overcast
9:55 PM 34.0 °F 28.0 °F 30.0 °F 85% 30.18 in 10.0 mi West 6.9 mph - N/A   Overcast
10:55 PM 32.0 °F - 28.9 °F 88% 30.20 in 10.0 mi Calm Calm - N/A   Mostly Cloudy
11:55 PM 32.0 °F 28.7 °F 28.0 °F 85% 30.22 in 10.0 mi West 3.5 mph - N/A   Clear